TimeCEST,TemperatureF,Dew PointF,Humidity,Sea Level PressureIn,VisibilityMPH,Wind Direction,Wind SpeedMPH,Gust SpeedMPH,PrecipitationIn,Events,Conditions,WindDirDegrees,DateUTC
12:25 AM,55.4,53.6,94,29.98,-9999.0,WSW,5.8,-,N/A,,Mist,250,2012-05-22 22:25:00
12:55 AM,55.4,53.6,94,29.98,-9999.0,West,4.6,-,N/A,,Mist,260,2012-05-22 22:55:00
1:25 AM,55.4,53.6,94,30.01,1.9,WSW,5.8,-,N/A,,Mist,250,2012-05-22 23:25:00
1:55 AM,55.4,53.6,94,30.01,1.7,West,3.5,-,N/A,,Mist,260,2012-05-22 23:55:00
2:00 AM,54,53,96,30.01,1,WSW,4.5,,,,Mist,250,2012-05-23 00:00:00
2:25 AM,53.6,53.6,100,30.01,1.6,WSW,4.6,-,N/A,,Mist,250,2012-05-23 00:25:00
2:55 AM,53.6,53.6,100,30.01,1.5,WSW,3.5,-,N/A,,Mist,250,2012-05-23 00:55:00
3:25 AM,53.6,53.6,100,30.01,1.6,West,4.6,-,N/A,,Mist,260,2012-05-23 01:25:00
3:55 AM,53.6,53.6,100,30.01,1.6,WSW,4.6,-,N/A,,Mist,240,2012-05-23 01:55:00
4:25 AM,53.6,53.6,100,30.04,-9999.0,SW,4.6,-,N/A,,Mist,230,2012-05-23 02:25:00
4:55 AM,53.6,53.6,100,30.04,-9999.0,SW,4.6,-,N/A,,Mist,220,2012-05-23 02:55:00
5:00 AM,54,53,95,30.04,2,SW,4.5,,,,Mist,220,2012-05-23 03:00:00
5:25 AM,53.6,53.6,100,30.04,-9999.0,SW,3.5,-,N/A,,Mist,230,2012-05-23 03:25:00
5:55 AM,55.4,55.4,100,30.04,1.7,SW,2.3,-,N/A,,Mist,230,2012-05-23 03:55:00
6:25 AM,55.4,55.4,100,30.04,1.4,West,3.5,-,N/A,,Mist,260,2012-05-23 04:25:00
6:55 AM,57.2,55.4,94,30.06,1.8,West,1.2,-,N/A,,Mist,260,2012-05-23 04:55:00
7:25 AM,59.0,57.2,94,30.06,2.8,SW,4.6,-,N/A,,Mist,230,2012-05-23 05:25:00
7:55 AM,59.0,55.4,88,30.06,-9999.0,WSW,3.5,-,N/A,,Mist,250,2012-05-23 05:55:00
8:00 AM,60,57,87,30.09,3,WSW,4.5,,,,Mist,240,2012-05-23 06:00:00
8:25 AM,60.8,57.2,88,30.06,3.1,Variable,2.3,-,N/A,,Mist,0,2012-05-23 06:25:00
8:55 AM,64.4,59.0,83,30.09,3.7,WSW,3.5,-,N/A,,Unknown,240,2012-05-23 06:55:00
9:25 AM,66.2,57.2,73,30.09,4.3,SSW,4.6,-,N/A,,Unknown,210,2012-05-23 07:25:00
9:55 AM,68.0,59.0,73,30.09,4.3,SSW,4.6,-,N/A,,Unknown,210,2012-05-23 07:55:00
10:25 AM,68.0,59.0,73,30.09,5.0,SW,3.5,-,N/A,,Unknown,220,2012-05-23 08:25:00
10:55 AM,71.6,60.8,69,30.12,5.0,Variable,2.3,-,N/A,,Unknown,0,2012-05-23 08:55:00
11:00 AM,71,59,57,30.13,5,SW,2.2,,,,Light Haze,230,2012-05-23 09:00:00
11:25 AM,73.4,60.8,65,30.12,5.6,West,3.5,-,N/A,,Unknown,260,2012-05-23 09:25:00
11:55 AM,73.4,60.8,65,30.12,5.0,SW,3.5,-,N/A,,Unknown,220,2012-05-23 09:55:00
12:25 PM,73.4,62.6,69,30.12,5.0,WNW,3.5,-,N/A,,Unknown,290,2012-05-23 10:25:00
12:55 PM,75.2,62.6,65,30.12,5.0,Variable,3.5,-,N/A,,Unknown,0,2012-05-23 10:55:00
1:25 PM,77.0,62.6,61,30.12,5.6,WNW,4.6,-,N/A,,Unknown,290,2012-05-23 11:25:00
1:55 PM,78.8,64.4,61,30.12,5.0,Variable,3.5,-,N/A,,Unknown,0,2012-05-23 11:55:00
2:00 PM,78,64,53,30.14,5,NW,4.5,,,,Light Haze,320,2012-05-23 12:00:00
2:25 PM,77.0,66.2,69,30.12,5.0,West,8.1,-,N/A,,Unknown,280,2012-05-23 12:25:00
2:55 PM,75.2,64.4,69,30.12,5.6,West,8.1,-,N/A,,Unknown,270,2012-05-23 12:55:00
3:25 PM,75.2,64.4,69,30.15,5.6,WNW,6.9,-,N/A,,Unknown,290,2012-05-23 13:25:00
3:55 PM,75.2,64.4,69,30.15,5.6,West,8.1,-,N/A,,Unknown,270,2012-05-23 13:55:00
4:25 PM,75.2,62.6,65,30.15,6.2,West,8.1,-,N/A,,Unknown,280,2012-05-23 14:25:00
4:55 PM,75.2,64.4,69,30.15,6.2,WNW,8.1,-,N/A,,Unknown,290,2012-05-23 14:55:00
5:00 PM,76,63,56,30.17,6,WNW,8.9,,,,,290,2012-05-23 15:00:00
5:25 PM,75.2,62.6,65,30.15,6.2,West,6.9,-,N/A,,Unknown,280,2012-05-23 15:25:00
5:55 PM,75.2,62.6,65,30.15,5.6,West,8.1,-,N/A,,Unknown,270,2012-05-23 15:55:00
6:25 PM,75.2,62.6,65,30.15,5.6,West,8.1,-,N/A,,Unknown,280,2012-05-23 16:25:00
6:55 PM,73.4,62.6,69,30.15,6.2,WNW,8.1,-,N/A,,Unknown,290,2012-05-23 16:55:00
7:25 PM,73.4,62.6,69,30.18,6.2,WNW,4.6,-,N/A,,Unknown,300,2012-05-23 17:25:00
7:55 PM,69.8,60.8,73,30.18,5.6,West,6.9,-,N/A,,Unknown,270,2012-05-23 17:55:00
8:00 PM,69,61,69,30.21,6,West,6.7,,,,Light Haze,280,2012-05-23 18:00:00
8:25 PM,68.0,60.8,78,30.18,5.6,WNW,5.8,-,N/A,,Unknown,290,2012-05-23 18:25:00
8:55 PM,66.2,59.0,78,30.21,4.3,West,4.6,-,N/A,Thunderstorm,Thunderstorm,280,2012-05-23 18:55:00
9:25 PM,66.2,59.0,78,30.21,5.0,West,3.5,-,N/A,,Partly Cloudy,260,2012-05-23 19:25:00
9:55 PM,64.4,59.0,83,30.24,5.0,WSW,3.5,-,N/A,,Mostly Cloudy,240,2012-05-23 19:55:00
10:25 PM,62.6,59.0,88,30.21,3.7,West,6.9,-,N/A,,Partly Cloudy,280,2012-05-23 20:25:00
10:55 PM,60.8,57.2,88,30.24,3.7,WSW,3.5,-,N/A,,Partly Cloudy,250,2012-05-23 20:55:00
11:00 PM,61,58,88,30.25,4,WSW,4.5,,,,Unknown,240,2012-05-23 21:00:00
11:25 PM,60.8,57.2,88,30.21,-9999.0,West,6.9,-,N/A,,Mist,280,2012-05-23 21:25:00
11:55 PM,59.0,57.2,94,30.21,2.2,WNW,4.6,-,N/A,,Mist,290,2012-05-23 21:55:00